Simultaneous Nadir Overpasses (SNOs) Predictions

Prediction of SNOs between GOES-17 and AQUA Satellite Orbit:

Table of predicted SNOs for the next 14.0 days since TLE Epoch: 6/29/2019
Index Date Time (GOES-17) GOES-17 Lat,Lon AQUA Lat,Lon Distance(km) Time Diff (sec)
1 06/29/2019 10:30:40 -0.01,-137.21 -0.64,-134.19 342.77 80
2 06/29/2019 22:52:04 0.02,-137.19 -0.43,-139.39 249.58 80
3 07/01/2019 22:42:32 0.02,-137.19 0.19,-136.43 85.90 80
4 07/02/2019 11:03:47 -0.02,-137.20 0.92,-141.59 498.83 80
5 07/03/2019 22:30:20 0.01,-137.17 0.81,-133.48 420.60 80
6 07/04/2019 10:51:35 -0.01,-137.18 0.31,-138.63 164.41 80
7 07/06/2019 10:39:23 -0.00,-137.16 -0.30,-135.67 169.62 80
8 07/06/2019 22:58:07 0.01,-137.14 -0.80,-140.86 423.47 80
9 07/08/2019 22:45:55 -0.00,-137.11 -0.18,-137.90 89.84 80
10 07/10/2019 22:36:23 -0.00,-137.08 0.45,-134.94 243.29 80
11 07/11/2019 10:54:59 -0.00,-137.09 0.63,-140.10 342.03 80




NCC Satellite Simultaneous Nadir Overpasses (SNOs) Prediction Service
